Regional Weather Roundup
Issued by NWS

Home | Current Version | Previous Version | Graphics & Text | Print | Product List | Glossary On
Versions: 1 2 3 4 5 6 7 8 9 10 11 12 13 14 15 16 17 18 19 20 21 22 23 24 25 26 27 28 29 30 31 32 33 34 35 36 37 38 39 40 41 42 43 44 45 46 47 48 49 50
000
ASUS44 KMEG 242210
RWRTN
TENNESSEE HOURLY STATE WEATHER ROUNDUP
NATIONAL WEATHER SERVICE MEMPHIS TN
500 PM CDT THU JUL 24 2014

TNZ002-004-019-021-049-052-054-088>092-242300-
WEST TENNESSEE

CITY           SKY/WX    TMP DP  RH WIND       PRES   REMARKS
MEMPHIS INTL   MOSUNNY   82  55  39 N9        30.02F
NWS MEMPHIS      N/A     82 N/A N/A MISG        N/A
JACKSON        MOSUNNY   82  61  48 N6        30.01F
DYERSBURG      MOSUNNY   81  57  44 N10G16    30.03S
UNION CITY     MOSUNNY   75  63  64 N6        30.01F
PARIS          SUNNY     77  61  57 VRB3      30.02F
LEXINGTON      SUNNY     79  63  57 N8        30.00S
$$

TNZ008-025-027-028-033-062-065-066-242300-
NORTH MIDDLE TENNESSEE

CITY           SKY/WX    TMP DP  RH WIND       PRES   REMARKS
NASHVILLE      PTSUNNY   86  62  44 NW9       29.98F
DICKSON        MOSUNNY   79  63  57 N9        30.01S
PORTLAND       MOSUNNY   79  61  53 N8        29.99S
CLARKSVILLE    PTSUNNY   85  58  39 N16G23    30.00F
LEBANON        SUNNY     82  61  49 N9        29.96F
SMYRNA         MOSUNNY   88  64  44 N6        29.98F
MURFREESBORO   SUNNY     82  63  52 N7        29.97
COOKEVILLE     PTSUNNY   81  68  65 VRB6      29.99S
LIVINGSTON     MOSUNNY   75  65  71 N8        30.02
GALLATIN       MOSUNNY   85  62  45 N12       29.99S
CROSSVILLE     MOSUNNY   78  63  59 N10       30.02F
$$

TNZ061-075-076-078-094-096-097-242300-
SOUTH MIDDLE TENNESSEE

CITY           SKY/WX    TMP DP  RH WIND       PRES   REMARKS
LEWISBURG      PTSUNNY   83  64  52 N10       29.98S
FAYETTEVILLE   MOSUNNY   82  64  54 N12       29.97F
TULLAHOMA      SUNNY     79  66  65 N12       30.00S
WINCHESTER     PTSUNNY   82  70  65 N13       29.97F
MCMINNVILLE    MOSUNNY   81  68  65 N9        29.99S
COLUMBIA       SUNNY     82  64  54 NW5       29.98R
SHELBYVILLE    SUNNY     82  68  61 NW12      29.99S
$$

TNZ017-018-042-046-047-242300-
NORTHEAST TENNESSEE

CITY           SKY/WX    TMP DP  RH WIND       PRES   REMARKS
TRI CITIES     TSTM      71  66  84 CALM      29.98R
ELIZABETHTON   MOCLDY    72  66  83 NW10      30.00R
$$

TNZ012-013-036-069-073-074-242300-
CENTRAL EAST TENNESSEE

CITY           SKY/WX    TMP DP  RH WIND       PRES   REMARKS
KNOXVILLE      PTSUNNY   75  70  84 CALM      29.94R
OAK RIDGE      MOSUNNY   83  67  58 MISG      29.97R
GATLINBURG     PTCLDY    79  66  65 N8        29.94R
MORRISTOWN     CLEAR     77  66  69 N14       29.98R
$$

TNZ083-085-099-242300-
SOUTHEAST TENNESSEE

CITY           SKY/WX    TMP DP  RH WIND       PRES   REMARKS
CHATTANOOGA    MOSUNNY   88  67  49 NW8       29.93F HX  91
$$

SKY/WX REPORTED AS FAIR MEANS FEW OR NO CLOUDS BELOW
12 THOUSAND FEET.




USA.gov is the U.S. government's official web portal to all federal, state and local government web resources and services.